Retour au catalogue

MOLNIYA 3-47

ActifCommunicationsHEO
NORAD 23642·PAYLOAD·🇷🇺 Russia

Lancé Aug 9, 1995 depuis Plesetsk Cosmodrome

Loading…

Prochains Passages (prochaines 24 heures)

TLE

FraisSource: Space-Track

Époque: Sep 13, 2026, 03:54 UTC

1 23642U 95042A   26256.16299845  .00000993  00000-0  00000+0 0  9992
2 23642  64.8418 260.0270 6652882 268.2735  20.5236  2.01961329228291

Suivez MOLNIYA 3-47 en temps réel avec AllMySat

Download on the App Store